GEFSSGP_con_prob3kmehi_246.txt.gz
EHI
12 8 5 3 1 0 0 0 0 0 0 0 0 0 0 0 0 0 0 0 0 0 0 0 1 1 1 1 1 0 0 0 0 0 1 2 2 2 2 1 0 0 0 0 1 2 2 1 0
9 6 5 3 1 0 0 0 0 0 0 0 0 0 0 0 0 0 0 0 0 0 0 1 2 2 2 2 2 1 0 0 0 1 2 3 2 1 1 1 0 0 0 1 2 2 1 0 0
5 5 4 2 0 0 0 0 0 0 0 0 0 0 0 0 0 0 0 0 0 0 0 1 2 3 3 3 3 2 1 0 0 1 2 2 1 1 1 0 0 0 0 1 2 2 0 0 0
2 3 2 1 0 0 0 0 0 0 0 0 0 0 0 0 0 0 0 0 0 1 0 1 2 3 3 3 3 2 1 0 0 0 1 1 1 1 1 0 0 0 0 1 2 2 1 0 0
2 2 1 0 0 0 0 0 0 0 0 0 0 0 0 0 0 0 0 0 0 0 0 0 1 1 2 2 1 1 0 0 0 1 1 1 1 2 1 0 0 0 0 1 2 3 2 1 0
1 1 0 0 0 0 0 0 0 0 0 0 0 0 0 0 0 0 0 0 0 0 0 0 0 0 1 1 0 0 0 0 0 1 1 1 2 3 2 0 0 0 0 1 2 3 2 1 0
1 1 0 0 0 0 0 0 0 0 0 0 0 0 0 0 0 0 0 0 0 0 0 0 0 0 0 0 0 0 0 0 0 1 1 1 2 2 1 0 0 0 0 0 1 1 2 2 1
1 1 0 0 0 0 0 0 0 0 0 0 0 0 0 0 0 0 0 0 0 0 0 0 0 0 0 0 1 1 0 0 0 0 0 0 1 1 0 0 0 0 0 0 0 0 1 2 2
0 0 0 0 0 0 0 0 0 0 0 0 0 0 0 0 0 0 0 0 0 0 0 0 0 0 0 0 1 1 0 0 0 0 0 0 0 0 0 0 0 0 0 0 0 0 0 1 1
0 0 0 0 0 0 0 0 0 0 0 0 0 0 0 0 0 0 0 0 0 0 0 0 0 0 0 0 0 0 0 0 0 0 0 1 1 0 1 1 1 0 0 0 0 0 0 0 0
0 0 0 0 0 0 0 0 0 0 0 0 0 0 0 0 0 0 0 0 0 0 0 0 0 0 0 0 0 0 0 0 0 0 0 1 1 1 1 1 1 0 0 0 0 0 0 0 0
0 0 0 0 0 0 0 0 0 0 0 0 0 0 0 0 0 0 0 0 0 0 0 0 0 0 0 0 0 0 0 0 0 0 0 1 1 1 0 0 0 0 0 0 0 0 0 0 0
0 0 0 0 0 0 0 0 0 0 0 0 0 0 0 0 0 0 0 0 0 0 0 0 0 0 1 1 1 0 0 0 1 1 0 0 0 0 0 0 0 0 0 0 0 0 0 0 0
0 0 0 1 0 0 0 0 0 0 0 0 0 0 0 0 0 0 0 0 0 0 0 0 0 2 2 2 1 0 0 0 0 1 1 1 0 0 0 0 0 0 0 1 0 0 0 1 1
0 0 0 0 0 0 0 0 0 0 0 0 0 0 0 0 0 0 0 0 0 0 0 0 1 3 4 3 1 0 0 0 0 0 1 1 0 0 0 0 0 0 0 1 0 0 0 1 2
0 0 0 0 0 0 0 0 0 0 0 0 0 0 0 0 1 1 1 2 1 1 2 2 2 4 4 3 2 1 0 0 0 0 0 1 1 1 0 1 1 1 1 2 1 1 0 1 1
0 0 0 0 0 0 0 0 0 0 0 0 0 0 0 1 2 2 3 3 2 2 4 5 4 4 4 4 3 1 0 0 0 0 0 1 2 2 1 1 2 2 2 3 3 2 1 1 2
0 0 0 0 0 0 0 0 0 0 0 0 0 0 1 1 3 3 3 3 3 4 6 8 8 7 6 5 4 2 1 0 0 0 0 1 2 2 1 1 1 2 1 2 2 2 2 3 4
0 0 0 0 0 0 0 0 0 1 1 1 2 2 3 3 3 3 4 4 5 7 10 13 14 13 11 8 5 4 2 1 0 0 1 2 3 3 1 0 0 1 1 1 1 2 3 4 5
0 0 0 0 0 0 0 1 2 2 2 2 3 5 6 6 5 5 7 8 9 11 14 17 18 18 16 12 8 6 5 4 2 2 3 4 5 5 2 1 1 2 3 3 3 3 4 4 3
0 0 0 0 0 0 0 2 3 3 3 3 4 5 7 6 7 9 11 13 13 14 16 19 21 22 20 16 13 10 9 8 5 5 5 6 7 5 3 3 3 5 5 6 6 6 5 4 4
0 0 0 0 0 0 0 1 2 3 3 3 4 5 5 5 6 9 12 13 13 14 16 20 25 26 23 19 15 13 12 10 8 8 8 7 6 4 3 4 5 6 7 7 7 7 6 6 6
0 0 0 0 0 0 0 0 1 1 1 2 3 4 4 4 5 8 11 12 11 12 15 21 28 30 26 22 19 17 14 11 10 9 9 8 5 3 3 3 4 6 7 7 8 8 6 6 6
0 0 0 0 0 0 0 0 0 0 1 1 2 3 3 3 5 8 10 11 11 12 14 21 30 32 29 25 24 23 19 16 14 12 10 8 5 3 3 4 4 5 6 7 8 8 7 6 6
0 0 0 0 0 0 0 0 0 1 1 1 2 2 3 3 5 10 11 12 13 13 14 20 29 33 30 27 26 28 25 21 17 14 10 7 6 4 4 5 6 7 7 7 8 9 9 8 8
0 0 0 0 0 0 0 0 1 3 3 3 3 3 4 4 7 11 13 14 15 15 16 19 26 30 29 27 26 28 26 20 17 15 12 9 7 6 4 5 7 8 8 8 9 10 10 10 10
0 0 0 0 0 0 0 0 2 6 7 6 5 6 6 6 8 12 15 16 18 18 19 20 25 29 29 27 27 26 23 19 17 16 13 12 10 7 5 4 6 7 9 10 11 11 10 10 9
0 0 0 0 0 0 0 0 2 7 9 8 8 9 11 11 13 16 18 19 20 19 20 21 24 28 27 26 25 23 20 20 18 15 13 13 12 8 5 5 6 8 11 13 13 13 11 9 8
0 0 0 0 0 0 0 0 2 4 7 8 9 11 16 19 21 23 23 22 20 19 19 21 24 25 25 25 24 21 19 18 18 15 12 12 11 9 8 8 9 11 13 14 14 13 11 9 8
0 0 0 0 0 0 1 1 1 2 5 7 8 12 19 24 26 27 27 24 21 19 20 21 23 23 24 25 24 20 18 17 16 15 13 13 12 10 9 11 12 13 14 14 14 13 11 9 9

GEFSSGP_con_prob3kmehi_252.txt.gz
EHI
7 11 20 27 22 9 1 0 0 0 0 0 0 0 0 0 0 0 0 1 2 2 1 0 0 0 0 0 0 0 1 1 1 1 2 2 1 0 0 0 0 0 1 2 1 0 0 0 0
7 16 26 25 14 5 0 0 0 0 0 0 0 0 0 0 0 0 0 1 2 2 1 1 1 0 0 0 0 0 0 1 1 2 2 2 1 0 0 0 1 1 2 2 1 0 0 0 0
11 21 26 17 6 1 0 0 0 0 0 0 0 0 0 0 0 0 0 1 2 2 2 2 2 1 0 0 0 0 0 1 1 2 3 3 2 2 1 1 2 2 3 2 1 0 0 0 0
19 23 19 8 2 0 0 0 0 0 0 0 0 0 0 0 0 0 0 0 1 1 2 2 2 1 0 0 0 0 0 1 2 1 2 3 3 3 2 1 1 2 2 1 1 0 0 0 0
24 22 13 4 0 0 0 0 0 0 0 0 0 0 0 0 0 0 0 0 0 1 2 3 3 2 0 0 0 0 1 2 2 2 2 3 3 2 2 1 1 1 2 2 1 1 0 0 0
22 16 7 2 0 0 0 0 0 0 0 0 0 0 0 0 0 0 0 0 0 2 3 3 4 4 2 0 0 0 1 2 2 3 4 4 2 1 1 0 1 1 2 2 2 1 0 0 0
17 10 3 1 0 0 0 0 0 0 0 0 0 0 0 0 0 0 0 0 1 3 3 2 2 3 2 1 0 0 1 1 2 5 5 3 1 1 0 0 1 1 1 2 1 0 0 0 1
8 5 2 1 0 0 0 0 0 0 0 0 0 0 0 0 0 0 0 0 0 1 2 2 2 2 2 1 0 0 1 2 4 6 7 4 2 1 0 0 0 1 1 2 1 1 1 1 2
2 2 1 0 0 0 0 0 0 0 0 0 0 0 0 0 0 0 0 0 0 0 2 3 4 3 2 1 1 1 2 3 5 7 7 6 3 1 0 1 1 1 2 3 3 3 3 3 3
0 0 0 0 0 0 0 0 0 0 0 0 0 0 0 0 0 0 0 0 0 0 1 3 3 3 3 2 2 2 4 5 5 5 5 4 3 2 1 2 3 2 2 3 3 4 3 2 2
0 0 0 0 0 0 0 0 0 0 0 0 0 0 0 0 0 0 0 0 0 0 0 1 1 2 5 5 4 4 7 8 7 4 3 2 2 2 2 3 3 2 1 2 3 3 2 1 1
0 0 0 0 0 0 0 0 0 0 0 0 0 0 0 0 0 0 0 0 0 0 0 2 4 7 9 10 8 7 9 10 9 7 5 2 1 1 2 3 3 1 1 1 2 2 1 2 2
0 0 0 0 0 0 0 0 0 0 0 0 0 0 0 0 0 0 1 2 2 1 1 4 11 16 16 13 10 8 9 11 11 10 7 3 2 2 2 3 4 2 0 1 3 2 2 3 3
0 0 0 0 0 0 0 0 0 0 0 0 0 0 0 0 1 2 3 4 4 4 4 7 14 20 19 14 10 8 7 10 10 9 7 5 4 4 4 5 5 3 2 3 5 4 3 4 4
0 0 0 0 0 0 0 0 0 0 1 0 0 1 1 1 1 3 4 5 5 6 7 9 12 17 18 14 11 6 5 7 7 6 5 4 4 5 7 7 6 5 5 6 6 5 4 5 5
0 0 0 0 0 0 0 0 0 0 0 0 1 2 2 1 1 2 3 5 7 10 11 11 13 18 18 17 13 7 5 6 6 5 5 4 3 5 8 9 8 7 6 7 8 7 7 7 7
0 0 0 0 0 0 0 0 0 0 0 0 1 3 3 3 2 2 3 6 10 15 17 16 18 20 21 20 17 12 9 9 8 8 7 5 3 4 7 10 10 9 8 9 9 10 10 9 9
0 0 0 0 0 0 1 1 1 0 0 0 2 3 4 4 4 4 5 8 13 20 24 24 23 24 23 21 19 17 15 12 11 11 11 8 5 5 8 12 12 10 10 9 9 10 10 11 11
0 0 0 0 0 0 1 2 2 1 0 0 1 4 6 8 9 10 11 12 18 29 35 33 30 28 25 21 19 19 18 16 15 15 14 10 6 5 8 12 12 10 10 9 8 8 8 10 11
0 0 0 0 0 0 1 2 3 1 0 0 2 6 10 13 18 22 20 18 26 39 42 39 37 33 28 22 19 19 19 18 20 20 17 13 9 7 8 11 12 11 10 9 8 7 8 7 8
0 0 0 0 0 0 0 2 4 3 1 0 2 8 13 17 24 29 28 26 32 41 43 41 44 41 32 25 21 20 20 22 24 24 22 18 15 12 11 11 11 11 10 8 7 8 9 7 6
0 0 0 0 0 0 0 1 4 5 3 1 2 8 15 20 24 29 32 32 34 38 40 45 51 51 41 29 23 21 22 24 25 24 24 23 20 17 15 14 12 12 10 7 6 7 8 8 7
0 0 0 0 0 0 0 0 2 4 3 1 2 7 14 20 23 27 32 35 34 33 38 48 58 58 49 35 25 21 22 22 21 20 20 22 22 20 18 17 15 13 11 9 7 6 7 7 7
0 0 0 0 0 0 0 0 2 3 4 3 4 6 11 18 24 27 32 37 35 32 36 49 60 62 53 39 29 25 23 21 18 15 17 21 24 24 22 20 19 16 13 10 9 8 7 7 7
0 0 0 0 0 0 0 1 2 3 4 5 6 6 9 17 25 29 35 41 40 37 41 51 61 62 53 43 35 31 28 23 17 15 17 20 25 28 28 25 21 17 12 10 10 9 9 9 10
0 0 0 0 0 0 0 1 2 2 4 5 6 7 10 19 27 33 39 45 45 45 48 56 62 61 53 46 40 36 32 26 21 19 19 20 23 28 32 30 23 17 12 10 11 11 11 12 12
0 0 0 0 0 0 0 1 1 1 3 5 6 8 13 21 29 34 41 46 47 49 53 60 65 61 52 48 44 39 34 30 27 27 25 23 22 25 31 32 25 18 14 12 12 12 13 13 11
0 0 0 0 0 0 0 1 1 1 3 5 7 10 13 19 25 31 37 43 47 51 55 62 66 61 52 48 45 41 38 34 32 32 31 28 26 26 29 28 24 20 19 17 15 13 14 13 10
0 0 0 0 0 0 0 0 1 1 3 6 10 12 15 18 23 27 33 40 45 49 54 61 65 61 52 47 44 42 39 37 34 32 30 30 30 30 28 25 22 21 21 20 18 16 16 14 11
0 0 0 0 0 0 0 0 1 2 3 7 12 16 17 21 24 27 31 37 42 44 50 58 63 58 52 49 46 41 38 36 34 31 27 28 31 33 29 24 22 21 21 20 19 17 16 15 13

GEFSSGP_con_prob3kmehi_258.txt.gz
EHI
11 5 1 0 0 0 0 0 0 0 1 0 0 0 0 0 0 0 0 0 0 0 0 0 0 0 0 1 1 1 0 0 0 0 0 0 0 0 0 0 0 0 0 0 0 0 0 0 0
4 2 0 0 0 0 0 0 0 0 1 0 0 0 0 0 0 0 0 0 0 0 0 0 0 0 0 0 1 1 0 0 0 0 0 1 1 0 0 0 0 0 0 0 0 0 0 0 0
0 1 1 0 0 0 0 0 0 0 0 0 0 0 0 0 0 0 0 0 0 0 0 0 1 1 1 1 0 0 0 0 0 0 0 1 1 0 0 0 0 0 0 0 0 0 0 0 0
1 2 2 1 0 0 0 0 0 0 0 0 0 0 0 0 0 1 2 1 0 0 0 1 3 3 2 2 1 1 0 0 1 1 0 1 1 0 0 0 0 0 0 0 0 0 0 0 0
3 3 2 1 0 0 0 0 0 0 0 0 0 0 0 0 2 3 3 2 0 0 0 2 4 4 3 3 3 2 1 1 1 2 1 0 0 0 0 0 0 0 0 0 0 0 0 0 0
5 4 2 1 0 0 0 0 0 0 0 0 0 0 0 0 2 3 3 1 0 0 0 1 4 5 4 3 4 4 3 1 1 1 1 0 0 0 0 0 0 0 0 1 1 1 1 1 1
6 4 3 1 0 0 0 0 0 1 0 0 0 0 0 0 1 1 1 0 0 0 0 0 2 3 3 3 3 4 3 2 1 0 1 1 1 0 0 0 0 0 1 2 2 2 2 2 2
6 4 2 1 0 0 0 0 0 0 0 0 0 0 0 0 0 0 0 0 0 0 0 0 0 1 1 2 3 3 3 3 1 0 0 1 1 0 0 0 0 1 2 2 2 2 2 2 2
5 3 1 0 0 0 0 0 0 0 0 0 0 0 1 1 0 0 0 0 0 0 0 0 0 0 0 1 2 2 2 2 1 0 0 0 0 0 0 0 0 1 2 1 1 1 1 1 1
4 2 0 0 0 0 0 0 0 0 0 0 0 0 1 2 1 1 1 0 0 0 0 0 0 0 0 0 1 1 1 1 1 0 0 0 0 0 0 0 0 1 1 1 1 1 1 1 1
2 1 0 0 0 0 0 0 0 0 0 0 0 0 1 2 1 1 1 1 0 0 0 1 1 1 0 0 0 0 0 0 0 0 0 0 0 0 0 0 0 1 2 2 2 2 2 2 2
1 0 0 0 0 0 0 0 0 0 0 0 0 0 1 2 1 1 1 1 0 0 1 2 2 1 0 0 0 0 0 0 0 0 0 0 0 0 0 0 0 1 1 1 2 2 2 2 2
0 0 0 0 0 0 0 0 0 0 0 0 0 1 2 3 2 1 0 0 0 1 3 4 4 2 1 1 0 0 0 0 0 0 0 0 0 0 0 0 0 0 0 0 1 1 1 1 1
0 0 0 0 0 0 0 0 0 0 0 1 1 1 3 4 3 1 0 0 1 3 6 8 7 5 3 2 1 0 0 0 0 0 0 0 0 0 0 0 0 0 0 0 0 0 0 0 1
0 0 0 0 0 0 0 0 0 0 1 2 3 3 4 4 3 2 1 0 2 7 10 11 10 7 5 3 1 0 1 1 0 0 0 0 0 0 0 0 0 0 0 0 0 0 0 1 2
0 0 0 0 0 0 0 0 0 0 1 3 4 5 5 4 3 2 1 1 4 9 12 12 11 8 6 3 2 1 2 2 1 0 0 0 0 0 0 0 0 0 0 0 1 1 1 2 3
0 0 0 0 0 0 0 0 0 0 0 2 4 6 5 4 3 3 2 3 6 11 14 14 12 11 8 5 3 3 3 2 1 1 1 0 0 0 0 0 0 0 0 1 2 3 3 3 3
0 0 0 0 0 0 0 0 0 0 0 1 4 6 6 4 3 4 6 8 12 17 18 16 15 14 12 8 6 4 3 1 1 2 2 1 1 0 0 0 0 0 0 1 3 4 4 3 3
0 0 0 0 0 0 0 1 1 0 1 2 4 5 6 6 5 6 10 16 19 21 21 19 18 17 15 11 7 5 3 1 1 3 4 2 1 1 1 1 0 0 0 1 2 2 2 3 3
0 0 0 0 0 0 0 1 1 0 1 2 4 5 7 9 9 9 15 22 24 23 22 21 20 20 17 13 9 6 4 2 1 3 3 2 1 2 2 2 1 0 0 1 1 0 1 1 1
0 0 0 0 0 0 0 1 1 0 0 2 4 6 9 11 12 13 19 25 26 24 23 22 21 20 16 12 8 6 4 2 2 2 1 1 2 3 3 2 1 1 1 1 1 0 0 0 0
0 0 0 0 0 0 0 0 0 0 1 3 5 7 10 12 13 15 19 24 26 26 25 24 22 18 14 10 8 6 4 3 3 3 1 1 2 3 2 1 1 2 3 2 1 0 0 0 0
0 0 1 0 0 0 0 0 0 0 2 5 7 9 11 13 15 16 18 22 25 26 26 26 24 20 15 10 7 5 4 4 5 5 4 1 1 2 3 2 2 3 3 3 2 1 1 1 0
0 0 0 0 0 0 0 0 0 0 1 5 9 12 13 14 15 17 20 24 27 28 28 29 28 23 17 12 8 6 6 6 6 6 5 3 2 4 4 3 3 3 3 3 3 3 2 1 1
0 0 0 0 0 0 0 0 0 0 1 5 9 12 13 14 14 17 22 26 30 32 33 33 30 24 18 14 10 7 7 7 7 7 6 5 5 5 4 2 3 3 3 3 3 3 2 1 0
0 0 0 0 0 0 0 0 0 1 3 5 9 12 14 14 15 18 21 25 30 34 37 36 31 25 20 16 12 10 10 10 9 7 7 7 7 6 3 3 3 4 4 4 3 3 1 0 1
0 0 0 0 0 0 0 0 0 1 3 6 9 14 16 15 15 17 20 23 29 36 37 35 31 26 23 19 16 15 15 13 11 9 8 8 8 5 3 3 5 5 5 5 4 2 1 1 2
0 0 0 0 0 0 0 0 0 1 3 7 10 15 18 15 14 15 19 24 30 36 36 33 30 26 22 20 18 17 16 14 12 10 8 8 7 4 2 3 7 8 7 7 6 3 1 2 3
0 0 0 0 0 0 0 0 1 3 5 8 11 15 18 19 17 17 21 25 30 34 36 35 31 25 20 18 17 16 14 13 13 11 8 7 5 3 2 3 8 10 9 7 6 4 3 3 3
0 0 0 0 0 0 0 1 2 4 7 10 12 14 18 20 21 21 22 26 29 33 36 37 32 24 18 16 15 13 12 13 13 12 9 7 5 3 2 4 9 10 9 6 5 4 3 3 3

GEFSSGP_con_prob3kmehi_264.txt.gz
EHI
4 1 0 0 0 0 0 0 0 0 0 0 0 0 0 0 0 0 0 0 0 0 1 0 0 0 1 2 2 2 2 1 1 1 0 0 0 0 1 2 3 4 3 1 0 0 0 0 0
2 1 0 0 0 0 0 0 0 0 0 0 0 0 0 0 0 0 0 0 0 0 1 1 0 0 0 1 1 2 2 1 1 0 0 0 0 0 0 1 2 3 2 0 0 0 0 0 0
1 0 0 0 0 0 0 0 0 0 0 0 0 0 0 0 0 0 0 0 0 0 1 1 0 0 0 0 0 1 1 1 0 0 0 0 0 0 0 0 1 1 0 0 0 1 0 0 0
0 0 1 0 0 0 0 0 0 0 0 0 0 0 0 0 0 0 0 0 0 0 0 1 1 0 1 1 0 0 0 0 0 1 1 0 0 0 0 0 0 0 0 0 0 0 0 0 0
0 0 0 0 0 0 0 0 0 0 0 0 0 0 0 0 0 0 0 0 0 0 0 1 1 1 2 2 1 0 0 0 1 2 1 0 0 0 0 0 0 0 0 0 0 0 0 0 0
0 0 0 1 1 0 0 0 0 0 0 0 0 0 0 0 0 0 0 0 0 0 0 1 1 1 2 3 2 1 1 1 1 1 1 0 0 1 0 0 0 0 0 0 0 0 0 0 0
0 0 1 2 1 0 0 0 0 0 0 0 0 0 0 0 0 0 0 0 0 0 0 0 0 1 2 3 3 2 2 2 1 0 0 0 0 0 0 0 0 0 0 0 0 0 0 0 1
0 1 2 2 1 0 0 0 0 0 0 0 0 0 0 0 0 0 0 0 0 0 0 0 0 0 1 1 2 1 2 2 1 0 0 0 0 0 0 0 1 1 0 0 0 0 0 1 2
0 1 2 1 0 0 0 0 0 0 0 0 0 0 0 1 1 0 0 0 0 0 0 0 0 0 0 0 0 0 1 1 0 0 0 1 0 0 0 0 1 1 0 0 0 0 0 1 2
1 1 2 1 0 0 0 0 0 0 0 0 0 0 1 2 2 1 0 0 0 0 0 0 0 0 0 0 0 0 0 0 0 0 0 0 0 0 0 0 1 1 0 0 0 0 1 1 1
2 3 2 1 0 0 0 0 0 0 0 0 0 0 1 2 2 1 0 0 0 0 0 0 0 0 0 0 0 0 0 0 0 0 0 0 0 0 0 0 0 0 0 0 0 1 1 0 0
2 2 2 1 0 0 0 0 0 0 1 1 0 0 0 1 1 1 0 0 0 0 0 0 0 0 0 0 0 0 0 0 0 0 0 0 0 0 0 0 0 0 1 1 1 2 1 0 0
1 1 1 1 0 0 0 0 0 1 2 2 1 0 0 0 0 0 0 0 0 0 0 0 0 0 0 0 0 0 0 0 0 0 0 0 0 0 0 0 0 1 2 2 3 2 1 0 0
0 0 0 0 0 0 0 0 0 1 2 2 1 0 0 0 0 0 0 0 0 0 0 0 0 0 0 0 0 0 0 0 0 0 0 0 0 0 0 0 0 1 2 2 2 2 1 0 0
0 0 0 0 0 0 0 0 0 0 1 1 1 0 0 0 0 0 0 0 0 0 0 0 0 0 0 0 0 0 0 0 0 0 0 0 0 0 0 0 0 0 1 1 1 1 0 0 0
0 0 0 0 0 0 0 0 0 0 0 0 0 0 0 0 0 0 0 0 0 0 0 0 0 0 0 0 0 0 0 0 0 0 0 1 1 0 0 0 0 0 0 0 0 0 0 0 0
0 0 0 0 0 0 0 0 0 0 0 0 0 0 0 0 0 0 0 0 1 1 0 1 1 1 0 0 0 0 0 0 0 0 0 1 1 0 0 0 0 0 0 0 0 0 0 0 0
0 0 0 0 0 0 0 0 0 0 0 0 0 0 0 1 1 1 1 1 1 2 2 2 2 2 1 0 0 1 1 1 0 0 0 1 1 1 0 0 1 1 0 0 0 0 0 0 0
0 0 0 0 0 0 0 0 0 0 0 0 0 0 1 2 2 2 2 2 2 3 4 4 3 2 1 0 1 2 2 2 1 1 1 2 3 2 1 1 1 1 0 0 0 0 0 0 0
0 0 0 0 0 0 0 0 0 0 0 0 0 1 2 3 3 3 2 2 2 3 5 5 3 1 1 1 2 3 3 3 3 3 3 4 4 3 2 1 1 1 0 0 0 1 1 1 0
0 0 0 0 0 0 0 0 0 0 0 0 1 2 3 3 2 2 1 1 1 3 4 5 4 3 1 2 3 3 3 3 3 4 4 4 3 3 2 1 1 0 0 0 1 2 2 1 0
0 0 0 0 0 0 0 0 0 0 0 0 1 2 2 2 2 2 2 1 1 3 4 5 6 4 2 3 4 3 3 3 4 4 4 4 3 3 3 1 0 0 0 1 2 2 1 0 0
0 0 0 0 0 0 0 0 0 0 0 0 0 1 1 1 1 2 3 2 3 5 6 6 6 4 3 3 4 4 3 4 4 4 4 5 4 3 1 0 0 0 1 2 2 1 0 0 0
0 0 0 0 0 0 0 0 0 0 0 0 0 1 1 1 2 3 4 6 8 9 9 9 7 5 4 4 4 3 4 5 5 4 4 5 4 1 0 0 0 0 1 2 2 1 0 0 0
0 0 0 0 0 0 0 0 0 0 0 0 1 2 3 2 3 5 6 8 11 12 12 11 9 7 6 4 3 3 5 6 6 4 4 5 4 1 0 0 0 0 0 1 1 1 0 0 0
0 0 0 0 0 0 0 0 0 0 0 1 2 3 3 3 4 5 6 9 11 12 13 12 10 7 7 6 4 4 6 6 5 4 4 6 4 1 0 0 0 0 0 0 0 0 0 0 0
0 0 0 0 0 0 0 0 0 0 1 2 3 4 4 3 4 6 7 8 9 10 12 13 11 10 10 9 6 4 5 5 4 5 6 7 6 3 1 1 0 0 0 0 0 0 0 0 0
0 0 0 0 0 0 0 0 0 1 2 3 4 4 4 5 6 7 8 8 8 9 11 12 12 12 12 10 6 4 4 4 4 6 7 7 6 5 4 2 1 0 0 0 0 0 0 0 0
0 0 0 0 0 0 0 0 1 2 3 3 3 4 4 5 6 7 8 8 6 7 9 10 11 13 12 9 6 3 3 3 5 6 7 7 6 5 5 3 1 0 0 0 0 0 0 0 0
0 0 0 0 0 0 0 1 2 3 3 3 3 3 4 5 5 5 7 7 6 6 8 9 11 13 12 8 5 2 2 4 6 7 7 6 5 4 4 3 1 0 0 1 1 1 0 0 0